OCEANSAT 2

Satellite information

Favourite Embed

Satellite Type and Status

PAYLOADIN ORBIT

Key statistics

Satellite OCEANSAT 2 at a glance.

Uptime

5706

Days in orbit

Revolutions

≈ 14.0

Per day

Orbit

SSO

Sun Synchronous Orbit

Inclination

98.2

Latest

Satellite identification and parameters

Extended collection of information and parameters for OCEANSAT 2.

Object identification

Identified? True

Debris? False

Object name: OCEANSAT 2

International designator: 2009-051A

Object number (NORAD): 35931

Object ID (CCSDS): 35931

Country: INDIA (IND)

Current information (Y/N): Y

RCS size: LARGE

Orbital parameters

Period: 102.887 minutes

Inclination: 98.2268 deg

SMA: 7273.345 km

Apoapsis: 906.487 km

Periapsis: 883.932 km

RAAN: 150.6415 deg

Eccentricy: 0.0015505

Argument of periapsis: 304.14 deg

Mean anomaly: 55.8296 deg

Mean motion: 13.99592194 rev/day

Mean motion (dot): 0.00000004 rev/day2

B* drag term: 0.000028184 1/REarth

Two-line elements (TLE)

Creation date: May 8, 2025, 3:01 a.m.

Reference frame: TEME

Reference center: EARTH

Epoch: May 7, 2025, 10:25 p.m. UTC

TLE line 0: 0 OCEANSAT 2

TLE line 1: 1 35931U 09051A 25127.93466892 .00000004 00000-0 28184-4 0 9991

TLE line 2: 2 35931 98.2268 150.6415 0015505 304.1400 55.8296 13.99592194822647

Live tracking on map

Real-time ground track for satellite OCEANSAT 2.

In-orbit conjunctions

There are no conjunctions computed for OCEANSAT 2, at the moment. Check back to stay up to date, as we update our databases every day.

Go to all conjunctions

Associated space launch

Oceansat-2 is an earth observation and oceanography satellite operated by ISRO.

OCEANSAT 2 was lifted into orbit during the mission ‘PSLV | Oceansat-2’, on board a PSLV space rocket.

The launch took place on Sept. 23, 2009, 6:21 a.m. from Satish Dhawan Space Centre First Launch Pad.

For more information about the launch, click the button.

Launch to space PSLV | Oceansat-2
PSLV | Oceansat-2

Agency: N/A

Status: Launch Successful

Launch date: Sept. 23, 2009, 6:21 a.m. UTC

Rocket: PSLV

Launch pad: Satish Dhawan Space Centre First Launch Pad

Location: Satish Dhawan Space Centre, India

...

Latest news about this satellite

There are no fresh news available about this satellite. Check back as we update our databases every day.


Newsletter sign-up

Weekly statistics, charts and insights to help you stay on top of the space industry.